Weather Roundup
Issued by NWS Springfield, MO

Home | Current Version | Previous Version | Text Only | Print | Product List | Glossary On
Versions: 1 2 3 4 5 6 7 8 9 10 11 12 13 14 15 16 17 18 19 20 21 22 23 24 25 26 27 28 29 30 31 32 33 34 35 36 37 38 39 40 41 42 43 44 45 46 47 48 49 50
000
NZUS99 KSGF 301610
HRRSGF

HOURLY WEATHER
NATIONAL WEATHER SERVICE SPRINGFIELD MO
1100 AM CDT SUN AUG 30 2015

......SGF CWA......

CITY           SKY/WX    TMP DP  RH WIND       PRES   REMARKS
SPRINGFIELD    MOSUNNY   76  69  79 S9        30.06R
JOPLIN         MOSUNNY   78  71  79 S6        30.03F
WEST PLAINS    CLOUDY    75  68  78 SE5       30.09S
ROLLA          SUNNY     79  68  69 CALM      30.05F
OSAGE BEACH    SUNNY     79  66  65 SE3       30.05S
BRANSON        CLOUDY    72  70  94 SE13      30.08R

......SURROUNDING SGF CWA......

CITY           SKY/WX    TMP DP  RH WIND       PRES   REMARKS
CHANUTE        CLOUDY    73  70  90 NE3       30.06R
PARSONS        CLOUDY    76  71  85 VRB3      30.05S
COFFEYVILLE    CLOUDY    74  70  87 NE5       30.03S
EMPORIA        CLOUDY    71  67  87 CALM      30.07R
GROVE OK       MOSUNNY   81  75  83 SE6       30.03S
ROGERS AR      PTSUNNY   80  71  74 SE8       30.05F
SILOAM SPRINGS PTSUNNY   79  68  69 SE8       30.03F
NEAR YELLVILLE CLOUDY    73  66  78 SW5       30.06R

......KANSAS AND MISSOURI......

CITY           SKY/WX    TMP DP  RH WIND       PRES   REMARKS
KANSAS CTY INT CLOUDY    73  64  73 E6        30.08R
DOWNTOWN KC    PTSUNNY   76  70  82 NE5       30.06S
COLUMBIA       SUNNY     79  69  71 SE6       30.07R
SEDALIA        SUNNY     80  69  69 SE6       30.06S
ST JOSEPH      MOSUNNY   73  68  84 CALM      30.07S
ST LOUIS       PTSUNNY   83  67  58 CALM      30.07S
SPIRIT OF STL  PTSUNNY   81  69  67 S7        30.05S
KIRKSVILLE     CLOUDY    73  69  87 SE7       30.10S FOG
WICHITA        CLOUDY    72  65  78 N5        30.08R
TOPEKA         CLOUDY    70  68  93 CALM      30.08R FOG
OLATHE         PTSUNNY   72  69  90 E6        30.06S

......TENNESSEE......

CITY           SKY/WX    TMP DP  RH WIND       PRES   REMARKS
MEMPHIS        CLOUDY    79  70  74 SW3       30.08R
NASHVILLE      CLOUDY    78  65  63 SE10      30.16R

......ARKANSAS.......

CITY           SKY/WX    TMP DP  RH WIND       PRES   REMARKS
FAYETTEVILLE   PTSUNNY   79  71  76 S8        30.05F
FT SMITH       SUNNY     83  70  64 E10       30.01R
LITTLE ROCK    MOSUNNY   87  65  47 S6        30.05R

......OKLAHOMA.......

CITY           SKY/WX    TMP DP  RH WIND       PRES   REMARKS
TULSA          MOSUNNY   80  72  76 CALM      30.00R
PONCA CITY     MOSUNNY   81  68  64 VRB3      30.03R
MCALESTER      SUNNY     82  70  66 SW7       30.01R
OKLAHOMA CITY  MOSUNNY   81  67  62 N3        30.03R

......IOWA............

CITY           SKY/WX    TMP DP  RH WIND       PRES   REMARKS
DES MOINES     CLOUDY    67  64  90 SE7       30.08R
QUAD CITIES    CLOUDY    68  64  87 CALM      30.10R FOG

......ILLINOIS........

CITY           SKY/WX    TMP DP  RH WIND       PRES   REMARKS
QUINCY         MOSUNNY   76  70  82 NE3       30.08R
CHICAGO        CLOUDY    70  64  81 NE5       30.08S




USA.gov is the U.S. government's official web portal to all federal, state and local government web resources and services.